FENGYUN 1C DEB, 30245

Orbit data source: Space-Track

FENGYUN 1C DEB, 30245 is space debris in SSO originally from a launch on Mon, 10 May 1999 UTC launched from the Taiyaun Space Center, China (TSC). Fengyun 1C debris stems from the Chinese weather satellite Fengyun-1C, which was intentionally destroyed by a Chinese anti-satellite missile in 2007. This event dramatically increased the amount of space debris, with thousands of trackable fragments posing hazards to satellites and human spaceflight. The Fengyun 1C debris cloud has become a focal point in discussions about space sustainability and the need for international regulations to prevent the creation of new debris.

Loading next visibility...
Identifier
30245, 1999-025XE
Orbit
SSO
Country
Flag of CNCN / PRC
Related business
Manufacturer
Unknown
Mission
Spacecraft
Bus & Motor
Unknown
Mass
Unknown
Launch date (UTC)
1999-05-10 (27 years ago)
Launch vehicle
Unknown
Launch site
Taiyaun Space Center, China (TSC)
Object type
Payload
Rocket body
Debris
Shape & HBR
Unknown shape, 0.1 m
Radar Cross Section
Medium (>0.1 m² and <1 m²)

Expand to show TLE details & history
Last TLE update: 12 hours ago

TLE from 12 hours ago
0 FENGYUN 1C DEB
1 30245U 99025XE  26163.75114316  .00001066  00000-0  93155-3 0  9994
2 30245  98.9028 145.4703 0194190 122.7633 239.2398 13.79530905972033
Epoch: 2026-06-12T18:01Z
TLE epoch observation values (Epoch: 2026-06-12T18:01:38.769Z)
Latitude
0.00001°
Longitude
-26.01733°
Altitude
1,043.371 km
Speed
7.293 km/s
True Right ascension
09h 41m 52s
True Declination
0° 00' 00"
Sunlit
Object was in daylight at epoch
Visualization orbit readout
Latitude
Unknown
Longitude
Unknown
Altitude
Unknown
Speed
Unknown
Apparent Right ascension
Unknown
Apparent Declination
Unknown
Sunlit
N/A
Visualization observer readout
Local Sidereal Time
16:29:32
Azimuth
Unknown
Elevation
Unknown
Doppler factor
Unknown
Orbital elements
Apogee altitude
1,105.325 km
Perigee altitude
820.218 km
Semi-major axis
7,340.909 km
Eccentricity
0.01942
Inclination
98.9028°
RAAN
145.4703°
Arg. of periapsis
122.7633°
True anomaly
237.35141°
Mean anomaly
239.2398°
Eccentric anomaly
238.29323°
Mean motion
3.45079 °/min
Orbital period
104.32 mins
BSTAR
0.00093155
Loading maneuver chart data...
Computing Atmospheric mass density...

Documentation

Showing up to 5 results
|